CAPE
0 0 1 0 0 0 0 0 0 0 0 0 0 0 0 0 0 0 0 0 0 0 0 0 1 3 5 5 7 6 8 13 14 11 15 3 3 4 9 17 23 0 1
0 0 2 2 0 0 0 0 0 0 0 0 0 0 0 0 0 0 0 0 0 0 0 0 0 0 1 0 0 3 2 3 7 7 2 1 0 0 4 15 31 0 0
1 2 3 2 0 0 0 0 0 0 0 0 0 0 0 0 0 0 0 0 0 0 0 0 0 0 0 0 0 0 0 0 0 0 0 0 0 0 0 1 14 3 0
3 3 2 1 0 0 0 0 0 0 0 0 0 0 0 0 0 0 0 0 0 0 0 0 0 0 0 0 0 0 0 0 0 0 0 0 0 0 0 0 0 7 0
3 1 3 2 0 0 0 0 0 0 0 0 0 0 0 0 0 0 0 0 0 0 0 0 0 1 1 1 0 0 0 0 0 0 0 0 0 0 0 0 0 2 0
2 1 2 1 0 0 0 0 0 0 0 0 0 0 0 0 0 0 0 0 0 0 0 0 0 0 0 0 1 1 0 0 0 0 0 0 0 0 0 0 0 0 0
5 4 3 2 0 0 0 0 0 0 0 0 0 0 0 0 0 0 0 0 0 0 0 0 0 0 0 0 0 0 0 1 0 0 0 5 2 1 0 0 0 0 0
0 2 3 4 2 2 2 1 2 7 26 12 5 3 3 4 2 0 0 5 6 7 5 4 3 0 0 0 0 0 2 3 4 1 4 8 6 1 0 0 0 0 0
4 7 6 7 7 5 7 7 13 17 16 15 15 10 11 12 2 0 1 10 18 12 10 9 4 0 0 0 0 0 0 2 2 0 0 1 1 2 2 0 0 0 0
2 3 7 8 7 4 3 4 16 21 16 20 17 15 8 11 2 0 7 16 16 17 12 10 1 1 0 0 0 0 0 0 1 1 2 2 1 3 2 7 5 0 2
1 3 6 6 3 1 4 10 8 12 16 15 17 18 15 10 5 0 0 20 17 13 15 16 14 0 1 0 0 0 0 1 0 1 3 6 6 7 6 7 7 6 6
2 5 6 4 4 2 3 6 9 13 13 16 19 21 16 19 3 1 0 1 0 12 14 18 10 1 0 0 0 0 0 0 4 4 4 6 7 10 11 10 5 8 6
5 5 7 5 1 0 1 7 9 10 13 15 15 22 22 26 19 1 0 0 0 11 16 5 0 0 0 0 0 0 0 5 5 4 5 8 10 7 6 6 4 1 0
5 5 5 3 0 0 0 1 3 9 11 10 14 21 25 29 18 17 11 7 2 5 2 1 0 0 0 0 0 1 5 5 6 8 9 9 8 8 8 8 8 9 8
7 8 6 2 0 0 0 0 1 4 2 7 13 15 23 27 21 10 10 10 7 2 1 1 1 1 2 4 3 1 4 5 5 7 5 5 6 6 5 6 5 7 7
7 9 9 3 1 0 1 2 0 0 0 0 0 6 13 3 0 1 0 0 0 0 1 2 3 4 2 1 0 0 0 0 0 0 2 1 3 4 5 6 7 8 7
6 8 10 4 1 1 2 2 4 2 0 0 0 1 4 2 1 4 2 0 0 0 1 2 5 5 1 0 0 0 0 0 0 0 0 1 4 3 4 3 4 3 3
16 6 11 11 9 10 11 13 12 11 7 17 9 8 7 5 9 3 2 1 0 0 0 0 1 1 0 0 0 0 0 0 0 0 0 2 3 3 4 1 2 2 1
20 23 23 27 28 27 18 17 16 13 16 17 18 23 11 21 5 2 1 3 2 0 0 0 0 0 0 0 0 0 0 0 0 1 1 0 3 3 2 1 3 0 0
16 7 9 14 16 13 12 14 15 13 15 16 16 23 22 16 20 19 16 11 5 0 0 0 0 0 0 0 2 2 2 2 1 0 1 3 5 3 3 2 6 7 3
12 14 8 11 8 14 14 14 14 10 6 7 13 20 6 10 11 9 3 5 3 0 1 0 0 0 1 1 0 1 0 1 0 0 0 0 2 4 3 6 6 5 2
10 9 10 10 9 12 11 8 5 3 4 6 10 13 5 12 10 9 4 4 1 0 0 1 0 0 0 0 0 4 2 1 1 0 1 0 2 5 5 7 7 8 7
8 10 11 10 10 4 4 2 5 7 7 10 9 8 8 13 12 10 6 8 3 2 1 1 5 1 2 1 2 3 3 1 1 1 1 3 3 6 7 9 7 6 7
11 11 8 8 5 2 5 13 11 5 9 11 14 13 9 10 17 12 11 10 6 6 4 1 2 2 3 3 6 4 1 1 2 1 0 2 3 3 5 5 5 4 6
11 13 14 14 12 12 14 12 17 14 14 16 17 15 12 13 15 13 9 7 4 5 2 2 2 0 0 0 0 0 0 0 0 0 0 3 3 2 3 5 6 7 6
9 12 13 13 17 17 16 17 15 15 15 15 14 15 14 11 10 9 7 4 2 2 1 1 1 0 0 0 0 0 0 0 0 0 1 4 5 6 7 6 3 6 5
CIN
0 0 0 0 0 0 0 0 0 0 0 0 0 0 0 0 0 0 0 0 0 0 0 0 0 0 0 0 0 0 0 0 0 0 0 0 0 0 0 0 0 0 0
0 0 0 0 0 0 0 0 0 0 0 0 0 0 0 0 0 0 0 0 0 0 0 0 0 0 0 0 0 0 0 0 0 0 0 0 0 0 0 0 0 0 0
0 0 0 0 0 0 0 0 0 0 0 0 0 0 0 0 0 0 0 0 0 0 0 0 0 0 0 0 0 0 0 0 0 0 0 0 0 0 0 0 0 0 0
0 0 0 0 0 0 0 0 0 0 0 0 0 0 0 0 0 0 0 0 0 0 0 0 0 0 0 0 0 0 0 0 0 0 0 0 0 0 0 0 0 0 0
0 0 0 0 0 0 0 0 0 0 0 0 0 0 0 0 0 0 0 0 0 0 0 0 0 0 0 0 0 0 0 0 0 0 0 0 0 0 0 0 0 0 0
0 0 0 0 0 0 0 0 0 0 0 0 0 0 0 0 0 0 0 0 0 0 0 0 0 0 0 0 0 0 0 0 0 0 0 0 0 0 0 0 0 0 0
0 0 0 0 0 0 0 0 0 0 0 0 0 0 0 0 0 0 0 0 0 0 0 0 0 0 0 0 0 0 0 0 0 0 0 0 0 0 0 0 0 0 0
0 0 0 0 0 0 0 0 0 0 0 0 0 0 0 0 0 0 0 0 0 0 0 0 0 0 0 0 0 0 0 0 0 0 0 0 0 0 0 0 0 0 0
0 0 0 0 0 0 0 0 0 0 0 0 0 0 0 0 0 0 0 0 0 0 0 0 0 0 0 0 0 0 0 0 0 0 0 0 0 0 0 0 0 0 0
0 0 0 0 0 0 0 0 0 0 0 0 0 0 0 0 0 0 0 0 0 0 0 0 0 0 0 0 0 0 0 0 0 0 0 0 0 0 0 0 0 0 0
0 0 0 0 0 0 0 0 0 0 0 0 0 0 0 0 0 0 0 0 0 0 0 0 0 0 0 0 0 0 0 0 0 0 0 0 0 0 0 0 0 0 0
0 0 0 0 0 0 0 0 0 0 0 0 0 0 0 0 0 0 0 -1 0 0 0 0 0 0 0 0 0 0 0 0 0 0 0 0 0 0 0 0 0 0 0
0 0 0 0 0 0 0 0 0 0 0 0 0 0 0 0 0 0 0 0 0 0 0 0 0 0 0 0 0 0 0 0 0 0 0 0 0 0 0 0 0 0 0
0 0 0 0 0 0 0 0 0 0 0 0 0 0 0 0 0 0 0 0 0 0 0 0 0 0 0 0 0 0 0 0 0 0 0 0 0 0 0 0 0 0 0
0 0 0 0 0 0 0 0 0 0 0 0 0 0 0 0 0 0 0 0 0 0 0 0 0 0 0 0 0 0 0 0 0 0 0 0 0 0 0 0 0 0 0
0 0 0 0 0 0 0 0 0 0 0 0 0 0 0 0 0 0 0 0 0 0 0 0 0 0 0 0 0 0 0 0 0 0 0 0 0 0 0 0 0 0 0
0 0 0 0 0 0 0 0 0 0 0 0 0 0 0 0 0 0 0 0 0 0 0 0 0 0 0 0 0 0 0 0 0 0 0 0 0 0 0 0 0 0 0
0 0 0 0 0 0 0 0 0 0 0 0 0 0 0 0 0 0 0 0 0 0 0 0 0 0 0 0 0 0 0 0 0 0 0 0 0 0 0 0 0 0 0
0 0 0 0 0 0 0 0 0 0 0 0 0 0 0 0 0 0 0 0 0 0 0 0 0 0 0 0 0 0 0 0 0 0 0 0 0 0 0 0 0 0 0
0 0 0 0 0 0 0 0 0 0 0 0 0 0 0 0 0 0 0 0 0 0 0 0 0 0 0 0 0 0 0 0 0 0 0 0 0 0 0 0 0 0 0
0 0 0 0 0 0 0 0 0 0 0 0 0 0 0 0 0 0 0 0 0 0 0 0 0 0 0 0 0 0 0 0 0 0 0 0 0 0 0 0 0 0 0
0 0 0 0 0 0 0 0 0 0 0 0 0 0 0 0 0 0 0 0 0 0 0 0 0 0 0 0 0 0 0 0 0 0 0 0 0 0 0 0 0 0 0
0 0 0 0 0 0 0 0 0 0 0 0 0 0 0 0 0 0 0 0 0 0 0 0 0 0 0 0 0 0 0 0 0 0 0 0 0 0 0 0 0 0 0
0 0 0 0 0 0 0 0 0 0 0 0 0 0 0 0 0 0 0 0 0 0 0 0 0 0 0 0 0 0 0 0 0 0 0 0 0 0 0 0 0 0 0
0 0 0 0 0 0 0 0 0 0 0 0 0 0 0 0 0 0 0 0 0 0 0 0 0 0 0 0 0 0 0 0 0 0 0 0 0 0 0 0 0 0 0
0 0 0 0 0 0 0 0 0 0 0 0 0 0 0 0 0 0 0 0 0 0 0 0 0 0 0 0 0 0 0 0 0 0 0 0 0 0 0 0 0 0 0
Wind_Speed
16 14 14 13 13 12 11 10 9 8 8 7 8 7 7 6 6 6 7 7 7 7 7 8 8 7 5 4 3 4 4 4 7 8 5 7 11 12 9 8 7 8 8
15 15 15 14 13 11 11 11 9 8 8 8 8 8 7 7 6 6 6 7 7 8 8 9 9 6 6 6 4 5 5 4 6 8 7 7 9 10 9 8 7 7 7
15 15 14 14 13 12 11 11 9 10 8 8 8 8 8 7 6 6 6 7 8 9 10 10 10 8 7 6 7 6 6 4 5 5 6 5 7 9 8 6 5 6 7
15 14 14 14 13 12 11 10 10 10 9 9 8 8 7 7 6 7 7 7 9 10 10 10 11 10 10 9 8 8 7 6 6 5 6 7 8 9 8 7 4 3 9
16 15 13 13 13 12 11 11 11 9 8 10 9 8 7 5 4 6 6 8 9 11 9 10 11 12 13 16 9 10 9 7 6 7 7 7 9 10 11 9 6 2 6
16 15 14 13 13 12 12 11 11 10 9 10 9 8 8 7 8 6 6 8 9 8 8 8 9 6 12 15 15 18 17 11 10 7 7 9 12 11 10 9 8 8 6
14 13 14 14 14 12 11 10 10 10 9 10 9 9 10 11 10 9 9 10 9 10 9 8 7 5 7 8 9 11 17 16 14 9 8 9 10 12 11 11 9 7 7
11 11 13 14 13 12 10 9 10 9 8 9 8 8 10 10 10 11 13 12 11 10 10 9 7 9 10 7 8 9 10 12 12 9 10 10 11 13 12 9 10 4 4
15 14 12 12 13 13 12 12 10 10 10 10 8 9 10 10 10 9 11 10 10 9 10 10 8 9 12 9 7 8 8 8 8 12 12 13 14 19 18 9 10 8 4
16 14 13 13 12 12 13 13 12 11 11 10 10 9 11 10 10 8 8 8 9 7 8 11 13 11 13 10 6 6 7 7 7 7 8 10 12 13 18 13 10 9 7
15 15 14 13 13 13 13 10 12 11 12 11 11 9 9 9 8 8 6 6 6 5 6 6 7 12 13 13 11 8 7 5 5 6 6 7 8 9 9 9 11 9 9
16 15 14 14 11 11 14 12 12 12 12 11 12 9 7 9 11 10 9 11 6 6 6 6 8 12 13 12 10 10 7 4 4 5 6 7 7 7 7 7 7 7 6
15 14 16 13 13 13 14 13 11 11 10 10 9 9 7 7 8 13 12 14 10 6 6 8 9 8 8 10 12 10 6 5 5 5 6 6 5 5 6 7 6 2 2
17 17 14 15 14 13 10 9 9 10 9 9 8 9 8 8 8 8 7 8 11 9 9 5 6 7 7 4 4 5 5 5 5 5 5 5 4 5 6 6 6 6 4
15 15 14 12 13 12 10 9 8 7 7 9 8 8 8 8 7 9 9 7 6 7 6 4 3 3 3 3 4 4 4 4 5 5 5 5 5 5 5 5 6 6 6
15 13 12 12 11 11 10 9 9 10 7 7 9 8 6 10 14 12 12 12 14 12 5 4 3 3 3 3 3 4 4 4 4 4 4 5 5 5 6 5 6 6 6
14 14 11 12 11 11 11 10 10 9 11 12 11 11 13 15 16 15 16 14 12 7 4 4 4 3 3 3 3 3 4 4 2 4 4 5 5 5 5 6 6 7 7
12 15 11 11 10 10 9 10 9 10 10 9 11 12 16 17 17 15 15 12 6 5 4 4 4 3 3 3 3 3 3 3 3 3 4 4 5 5 5 6 6 8 8
11 9 9 8 8 9 9 9 9 10 9 9 9 10 14 18 17 15 13 3 4 5 5 4 4 3 3 3 3 3 2 3 3 2 3 3 4 5 5 6 6 7 8
9 12 11 9 10 10 9 9 9 9 9 9 8 9 9 11 8 7 6 4 4 4 5 4 4 3 3 3 3 2 2 2 1 1 2 3 4 5 5 5 5 7 7
8 9 11 9 9 9 9 9 9 9 8 9 8 9 13 9 7 6 5 5 5 5 5 4 4 4 3 3 3 3 1 0 1 2 3 3 3 4 4 5 5 6 7
8 9 9 9 8 9 9 8 8 9 9 8 8 9 14 7 6 5 5 5 4 4 4 4 4 4 4 3 3 3 3 2 1 2 2 3 4 4 4 5 5 6 7
9 9 9 8 8 9 8 8 8 8 8 8 8 8 9 8 6 6 5 5 5 4 4 4 4 4 4 3 3 3 3 2 1 2 3 4 4 4 5 5 6 6 7
9 9 9 8 7 8 8 8 8 9 9 8 8 8 9 8 7 7 6 6 6 5 5 4 4 6 5 4 4 4 3 2 2 2 3 5 5 4 5 5 6 7 7
9 9 8 8 8 7 8 7 7 8 8 8 8 8 8 8 7 7 7 6 6 6 6 5 5 6 7 7 5 5 3 3 4 4 4 6 6 6 6 5 6 7 8
8 8 7 7 7 7 7 7 7 8 8 7 7 7 8 8 8 7 7 7 7 6 7 6 6 7 7 7 8 7 6 5 5 5 6 6 5 5 5 6 8 7 9
Wind_Direction
168 166 162 156 149 146 139 140 133 137 145 144 125 112 104 96 86 82 80 85 76 79 72 60 46 41 22 6 344 337 347 341 306 318 340 358 337 352 1 357 359 35 44
170 165 161 152 150 146 147 132 134 145 139 144 126 114 102 93 90 98 87 80 77 72 64 60 49 32 13 7 353 357 358 345 317 324 355 352 346 350 354 6 10 55 21
169 163 159 152 151 155 145 127 152 139 145 134 123 115 108 104 109 102 99 94 81 72 59 52 42 29 29 11 17 0 358 352 341 332 349 6 357 353 354 23 25 40 36
162 161 160 159 156 150 135 143 149 138 150 123 113 113 115 126 126 120 116 107 85 73 71 62 52 35 28 15 27 15 6 2 3 357 9 7 4 5 356 5 43 49 37
159 163 166 157 153 142 141 147 133 148 137 124 125 118 117 116 83 115 115 98 93 87 79 73 64 54 50 41 25 25 22 24 18 19 15 10 12 3 6 3 357 119 90
156 157 153 158 146 145 142 145 141 145 139 134 117 120 110 88 85 43 85 90 84 86 87 81 87 99 84 58 49 54 46 19 40 28 24 13 8 5 356 3 358 16 10
150 150 156 152 146 141 144 136 145 142 136 122 121 120 110 108 106 93 73 77 74 75 61 68 78 89 63 82 81 61 60 49 37 33 38 22 10 0 349 2 3 35 34
140 147 155 143 141 134 140 144 139 127 113 110 115 115 110 100 113 104 93 86 80 74 76 79 67 63 42 43 70 66 59 49 37 40 40 30 24 7 356 356 346 27 59
147 151 152 143 141 149 144 140 137 134 131 122 124 115 118 121 127 120 101 95 87 85 78 64 70 67 60 42 62 71 62 52 54 48 48 41 32 28 23 14 15 17 25
152 149 138 141 146 140 141 141 140 135 130 125 122 119 125 126 122 113 105 111 109 100 95 89 66 66 66 58 60 70 67 43 28 33 37 37 34 27 31 29 14 23 14
141 135 137 140 138 137 138 143 136 135 132 130 124 124 126 123 124 113 104 115 117 113 99 85 74 67 67 66 64 55 50 27 45 40 45 38 33 31 29 30 27 28 20
138 135 130 135 138 147 140 141 140 135 135 140 135 131 126 127 124 106 100 91 101 116 94 90 85 76 71 67 68 65 59 63 52 49 42 36 30 26 25 30 36 30 42
130 128 129 138 147 147 144 147 145 149 156 151 146 140 148 137 129 121 109 105 104 112 91 82 95 81 81 77 59 54 47 49 47 49 42 38 28 20 18 18 35 31 94
132 135 139 146 146 154 150 157 155 164 161 155 155 150 155 151 145 150 131 118 116 106 115 97 84 86 69 78 69 65 56 43 37 43 41 35 22 19 24 15 9 9 6
135 140 146 141 154 155 158 159 169 164 165 159 162 159 158 167 168 160 148 146 140 114 130 150 157 147 130 114 96 72 58 51 49 39 32 27 26 11 26 15 11 5 11
145 144 144 151 156 159 150 140 82 110 111 103 130 150 145 122 141 152 144 135 130 141 166 167 171 175 135 113 97 91 69 60 39 34 34 21 14 22 1 14 11 5 3
146 146 150 162 161 159 159 150 138 123 125 133 141 144 144 143 146 150 143 137 143 153 204 176 175 170 150 120 105 84 83 55 24 43 30 25 359 8 355 6 11 2 358
142 148 160 162 157 156 157 154 145 147 147 154 154 159 157 155 151 145 142 138 147 212 185 177 171 167 149 132 115 100 92 77 53 21 30 22 360 355 1 1 7 355 350
139 146 147 141 145 150 153 152 152 156 160 158 154 165 169 158 148 149 161 187 169 174 178 175 165 161 148 141 114 96 62 56 24 3 28 7 2 342 359 354 350 347 319
138 139 145 148 148 150 154 155 158 163 160 160 168 159 149 142 157 161 192 206 202 188 178 172 166 163 156 156 157 168 169 186 161 320 11 1 355 332 344 337 337 329 334
140 147 147 145 158 158 160 163 166 165 165 170 171 158 165 176 177 180 190 192 202 188 185 180 166 170 171 178 187 172 222 217 354 344 338 346 345 317 329 317 319 318 322
145 147 151 153 152 159 165 163 161 165 169 170 165 154 175 203 180 190 189 183 186 188 182 186 180 180 184 192 197 197 209 236 263 299 320 303 299 302 308 308 311 319 313
145 149 150 149 155 155 160 159 164 169 170 176 171 166 187 199 193 197 186 173 177 179 179 181 190 175 160 196 207 227 234 226 298 330 298 293 292 304 309 308 316 311 323
152 155 155 152 156 161 167 167 172 177 175 178 177 179 186 196 194 195 183 175 178 178 170 190 201 191 176 204 201 207 211 227 263 267 270 285 286 281 304 306 306 314 301
155 156 156 158 162 173 170 175 178 179 183 184 183 187 185 187 188 184 178 172 179 178 184 192 195 190 200 212 229 245 114 176 278 326 271 251 266 283 275 293 297 302 301
157 159 160 162 167 172 175 179 180 181 185 184 185 185 183 184 184 181 173 177 180 185 184 189 193 210 201 208 214 219 201 216 249 235 277 267 269 279 284 294 294 299 299